Wells Aircraft, Inc. Hutchinson Municipal
(888) 496-5545
800 Airport Road
Hutchinson, KS 67501
(change)
Av Fuel Aviation Fuel Jet A: $4.60
100LL: $4.80
Prices current
Feb 20, 2019

Location

Wells Aircraft is located on the south end of the Hutchinson Municipal Airport (KHUT), in Hutchinson, Kansas.

Wells Aircraft, Inc.
800 Airport Road
Hutchinson, KS 67501
Map
Wells Location at KHUT

Quick Links


AirNav Information
(KHUT)

Hutchinson Weather

Hutchinson (KHUT)
Airport Diagram

Additional Resources

They say, "if you don't like the weather in Kansas, wait five minutes and it'll change." Be prepared with these aviation resources.

KHUT 240552Z AUTO 30012KT 10SM CLR M02/M05 A3006 RMK AO2 SLP185 60000 T10171050 11006 21017 400281017 51039                KHUT 240552Z AUTO 30012KT 10SM CLR M02/M05 A3006 RMK AO2 SLP185 60000 T10171050 11006 21017 400281017 51039                KHUT 240552Z AUTO 30012KT 10SM CLR M02/M05 A3006 RMK AO2 SLP185 60000 T10171050 11006 21017 400281017 51039                KHUT 240552Z AUTO 30012KT 10SM CLR M02/M05 A3006 RMK AO2 SLP185 60000 T10171050 11006 21017 400281017 51039                KHUT 240552Z AUTO 30012KT 10SM CLR M02/M05 A3006 RMK AO2 SLP185 60000 T10171050 11006 21017 400281017 51039                KHUT 240552Z AUTO 30012KT 10SM CLR M02/M05 A3006 RMK AO2 SLP185 60000 T10171050 11006 21017 400281017 51039                
 
 
Cirrus Aircraft